Location: *
(38.0747°S, 156.5031°W)
Time: 01:14:43
(UTC+00:00)

Daily predictions for brighter satellites

Satellite Brightness Start Highest point End
(mag) Time Altitude Azimuth Time Altitude Azimuth Time Altitude Azimuth
Milstar 3 4.3 04:50:46 10° W 05:03:23 46° NNW 05:10:47 10° ENE
Cosmos 2369 Rocket 2.4 04:58:09 10° NNW 05:03:46 81° WSW 05:09:26 10° SSE
OAO 2 Rocket 4.3 05:01:55 10° W 05:06:30 38° NNW 05:11:02 10° NE
USA 308 4.1 05:04:13 10° SSW 05:07:37 26° SSE 05:10:57 10° E
Cosmos 2263 4.2 05:02:17 10° NNW 05:07:53 80° ENE 05:13:36 10° SSE
Cosmos 2026 Rocket 4.4 05:03:36 10° NNW 05:09:45 71° W 05:16:05 10° S
USA 305 2.2 05:10:14 10° WNW 05:11:26 30° SW 05:13:09 10° SSE
ISS -1.6 05:12:03 10° NE 05:12:33 10° NE 05:13:02 10° ENE
Cosmos 1703 Rocket 4.5 05:09:19 10° NNE 05:12:58 27° E 05:16:39 10° SSE
SeaSat 1 4.2 05:09:01 10° N 05:13:27 33° WNW 05:17:56 10° SW
Meteor 1-31 Rocket 2.9 05:10:26 10° SSE 05:14:01 45° E 05:17:31 10° N
Okean 2 3.2 05:16:37 10° N 05:20:36 78° E 05:24:38 10° S
Cosmos 2266 Rocket 4.5 05:16:16 10° NNE 05:21:56 37° E 05:27:33 10° SSE
Okean 1-7 3.0 05:18:21 10° N 05:22:30 61° E 05:26:43 10° SSE
ADEOS Rocket 3.9 05:17:24 10° S 05:22:44 48° WSW 05:28:03 10° NW
Cosmos 1733 Rocket 3.3 05:20:39 10° S 05:25:01 75° W 05:29:20 10° N
Centaur D-1A AC-31 3.4 05:00:53 10° W 05:25:09 45° NNW 05:29:50 12° NE
USA 238 DEB 3.8 05:23:29 10° SSW 05:29:59 52° SE 05:35:16 14° NE
USA 238 3.8 05:23:37 10° SSW 05:30:06 52° SE 05:35:20 14° NE
Cosmos 44 4.4 05:29:40 10° SSW 05:34:24 32° SE 05:37:49 17° ENE
SL-24 R/B - RUBIN 2 4.4 05:32:10 10° NNE 05:35:44 25° ENE 05:39:13 10° ESE
Cosmos 1553 Rocket 4.0 05:30:45 10° S 05:37:14 81° E 05:43:32 10° N
SL-27 R/B 4.1 05:41:36 10° WSW 05:42:47 15° WNW 05:43:57 10° NW
USA 59 Rocket 4.2 05:36:42 10° WSW 05:44:03 21° SSW 05:51:28 10° SSE
USA 306 3.5 05:40:36 10° WNW 05:44:19 46° SW 05:47:39 10° SE
SL-24 R/B 4.4 05:40:08 10° S 05:45:12 66° E 05:50:00 10° N
Cosmos 2251 Rocket 4.2 05:42:36 10° S 05:47:35 37° ESE 05:50:28 21° ENE
SJ-6B 4.0 05:45:18 10° SE 05:47:28 20° ESE 05:47:28 20° ESE
Atlas 2A Centaur Rocket 3.6 05:46:39 10° NNW 05:48:51 19° NNE 05:49:54 17° NE
Cosmos 1140 Rocket 3.4 05:47:06 10° SSW 05:52:19 83° ESE 05:57:07 12° NNE
Cosmos 405 Rocket 3.4 05:49:40 10° SSW 05:53:04 49° W 05:56:27 10° N
DELTA 2 DEB (DPAF) 4.2 05:52:21 22° NE 05:54:46 49° ESE 05:58:49 10° S
Resurs 01 Rocket 3.7 05:57:28 10° SE 05:58:06 12° ESE 05:58:06 12° ESE
NOAA 6 4.2 05:58:55 10° S 06:04:06 78° WSW 06:09:13 10° NNW
NOSS 3-2 (C) 4.5 06:01:30 10° SW 06:06:51 36° WNW 06:11:30 10° N
Cosmos 1908 Rocket 3.6 06:02:45 10° S 06:07:18 85° W 06:11:13 14° N
YAOGAN 1 2.6 06:03:16 10° S 06:07:38 80° WSW 06:11:57 10° NNW
Cosmos 407 Rocket 3.4 06:04:22 10° SSW 06:09:36 73° ESE 06:12:33 26° NNE
Cosmos 1420 Rocket 3.9 06:10:55 10° NNW 06:16:14 80° ENE 06:21:36 10° SSE
USA 215 4.2 06:13:08 22° E 06:16:41 37° SSE 06:22:37 10° SSW
Cosmos 2056 Rocket 3.5 06:11:54 10° N 06:17:10 61° ENE 06:22:24 10° SSE
Helios 1B rocket 2.5 06:15:08 10° S 06:19:02 70° WSW 06:22:52 10° NNW
SPOT 1/Viking Rocket 3.5 06:15:15 10° SSE 06:20:28 62° E 06:24:37 16° N
Cosmos 489 Rocket 4.3 06:14:21 10° N 06:20:31 70° ENE 06:26:45 10° SSE
Cosmos 1782 Rocket 3.5 06:23:30 10° S 06:28:03 81° E 06:29:13 49° NNE
Cosmos 1703 3.4 06:25:57 21° NNW 06:28:19 66° W 06:32:03 10° S
OAO 3 Rocket 3.9 06:23:53 10° NW 06:27:54 36° N 06:27:54 36° N
Centaur D-1AR AC-40 4.4 05:43:18 10° W 06:29:05 36° NNW 06:33:56 22° NNE
ACS3 Solar Sail 2.2 06:28:10 10° SSE 06:34:14 43° E 06:34:51 42° ENE
USA 308 3.1 06:33:32 10° SW 06:37:28 50° NW 06:37:28 50° NW
Cosmos 1655 Rocket 4.0 06:31:37 10° N 06:37:54 82° W 06:44:14 10° S
Resurs 1-3 4.0 06:37:17 10° S 06:41:39 63° WSW 06:45:00 16° NNW
Cosmos 1300 Rocket 3.6 06:37:36 10° S 06:42:04 79° W 06:42:42 64° NNW
Cosmos 2315 Rocket 3.9 06:37:25 10° S 06:43:45 86° W 06:46:48 33° N
ISS -1.4 06:45:24 10° NW 06:46:26 18° NW 06:46:26 18° NW
CZ-4B R/B 3.3 06:46:38 10° SSE 06:51:28 86° WSW 06:52:17 62° NNW
CZ-4B R/B 4.4 06:49:08 10° SSE 06:50:56 26° SSE 06:50:56 26° SSE
BlueWalker 3 4.0 06:51:07 10° SSW 06:53:21 20° S 06:53:21 20° S
RESURS DK-1 3.5 07:05:16 41° SSW 07:05:16 41° SSW 07:08:30 10° SSE
Nadezhda 2 Rocket 4.3 07:05:00 73° ENE 07:05:09 73° E 07:11:20 10° S
Cosmos 1190 Rocket 4.1 07:00:46 10° SSW 07:05:59 66° WNW 07:06:16 65° NW
Cosmos 1656 3.6 07:05:33 61° NW 07:06:32 82° WSW 07:12:02 10° SSE
Meteor 1-24 Rocket 4.3 07:09:02 23° NW 07:12:14 51° WSW 07:17:38 10° S
CZ-4 R/B 2.9 07:09:24 10° S 07:11:47 32° SSW 07:11:47 32° SSW
SL-08 R/B 4.4 07:13:40 71° ESE 07:13:40 71° ESE 07:19:42 10° S
CZ-4B R/B 3.7 07:23:22 10° SSE 07:27:34 52° S 07:27:34 52° S
Cosmos 2227 Rocket 3.7 07:25:26 10° S 07:28:41 25° SSE 07:28:41 25° SSE
Cosmos 2297 Rocket 3.0 07:29:01 10° SSW 07:33:07 46° S 07:33:07 46° S
ATLAS CENTAUR R/B 4.1 07:25:37 10° SW 07:34:47 47° SE 07:36:04 44° ESE
Resurs 01 Rocket 3.3 07:32:40 10° S 07:35:34 32° SSW 07:35:34 32° SSW
USA 59 Rocket 4.1 07:33:15 10° SSW 07:38:44 15° S 07:43:55 10° SE
USA 215 3.6 08:00:29 59° WSW 08:00:29 59° WSW 08:05:57 10° SW
Okean O Rocket 4.2 08:01:12 10° S 08:02:15 16° S 08:02:15 16° S
Cosmos 2263 Rocket 4.3 08:11:16 10° S 08:13:13 19° SSE 08:13:13 19° SSE
ACS3 Solar Sail 3.5 08:12:28 10° S 08:17:53 30° WSW 08:20:00 25° W
SL-12 R/B(2) 4.4 08:17:29 10° SSW 08:24:19 60° S 08:24:19 60° S
ATLAS 2AS CENTAUR R/B 4.4 08:47:52 24° SSE 08:47:52 24° SSE 08:50:29 10° SSE
USA 59 Rocket 3.3 09:25:03 10° SSW 09:32:58 25° SSE 09:35:35 22° SE
USA 59 Rocket 2.5 11:15:17 10° SSW 11:21:49 45° SSW 11:21:49 45° SSW
Cosmos 2278 Rocket 4.3 11:35:18 10° S 11:38:59 22° SE 11:38:59 22° SE
